Showing default

OPS 9845 (DMSP 5D-2 F6), 13736

Orbit data source: Space-Track

OPS 9845 (DMSP 5D-2 F6), 13736 is a payload satellite owned by USAF SD (US) in SSO that was launched on Tue, 21 Dec 1982 UTC via an ATLAS E launch vehicle from the Air Force Western Test Range (AFWTR). Payload-class satellites include a variety of spacecraft equipped with specific instruments for various scientific and technological missions. These include communications satellites like Starlink; space stations such as the ISS; scientific satellites like the Hubble; Earth observation satellites from companies like Planet Labs, Umbra, and HawkEye 360; GPS; miniature CubeSats for education and research; and military/defense satellites.

Loading next visibility...
Identifier
13736, 1982-118A
Orbit
SSO
Country
Flag of USUS
Related business
Manufacturer
RCA/East Windsor
Mission
Non-operational spacecraft
Bus & Motor
BLOCK 5D, STAR 37S
Mass
1,474 kg wet, 760 kg dry
Launch date (UTC)
Icon of a cake. It is the launch day of the satellite!1982-12-21 (43 years ago)
Launch vehicle
ATLAS E
Launch site
Air Force Western Test Range (AFWTR)
Object type
Payload
Rocket body
Debris
Shape & HBR
Unknown
Radar Cross Section
Large (>1 m²)

Expand to show TLE details & history
Last TLE update: 7 hours ago

TLE from 7 hours ago
0 OPS 9845 (DMSP 5D-2 F6)
1 13736U 82118A   25354.78461075  .00000129  00000-0  66307-4 0  9995
2 13736  98.5885 179.5674 0008274 125.8627 234.3326 14.30429770239505
Epoch: 2025-12-20T18:49Z
TLE epoch observation values (Epoch: 2025-12-20T18:49:50.368Z)
Latitude
0.00005°
Longitude
167.50109°
Altitude
796.69 km
Speed
7.453 km/s
True Right ascension
11h 58m 16s
True Declination
0° 00' 00"
Sunlit
Object was in daylight at epoch
Visualization orbit readout
Latitude
Unknown
Longitude
Unknown
Altitude
Unknown
Speed
Unknown
Apparent Right ascension
Unknown
Apparent Declination
Unknown
Sunlit
N/A
Visualization observer readout
Local Sidereal Time
00:33:13
Azimuth
Unknown
Elevation
Unknown
Doppler factor
Unknown
Orbital elements
Apogee altitude
793.362 km
Perigee altitude
781.505 km
Semi-major axis
7,165.571 km
Eccentricity
0.00083
Inclination
98.5885°
RAAN
179.5674°
Arg. of periapsis
125.8627°
True anomaly
234.25562°
Mean anomaly
234.3326°
Eccentric anomaly
234.2941°
Mean motion
3.57822 °/min
Orbital period
100.61 mins
BSTAR
0.000066307
Loading maneuver chart data...
Computing Atmospheric mass density...
Loading historical data...
Loading historical data...
Loading historical data...
Loading historical data...
Loading historical data...
Loading historical data...
Loading historical data...

Documentation

Showing up to 5 results
|